DMSP 5D-2 F13 DEB

Satellite information

Favourite Embed

Satellite Type and Status

DEBRISIN ORBIT

Key statistics

Satellite DMSP 5D-2 F13 DEB at a glance.

Uptime

11167

Days in orbit

Revolutions

≈ 14.1

Per day

Orbit

SSO

Sun Synchronous Orbit

Inclination

99.0

Latest

Satellite identification and parameters

Extended collection of information and parameters for DMSP 5D-2 F13 DEB.

Object identification

Identified? True

Debris? True

Object name: DMSP 5D-2 F13 DEB

International designator: 1995-015BW

Object number (NORAD): 40478

Object ID (CCSDS): 40478

Country: UNITED STATES OF AMERICA (US)

Current information (Y/N): Y

RCS size: SMALL

Orbital parameters

Period: 101.814 minutes

Inclination: 98.9796 deg

SMA: 7222.663 km

Apoapsis: 891.138 km

Periapsis: 797.918 km

RAAN: 236.5242 deg

Eccentricy: 0.0064533

Argument of periapsis: 161.5729 deg

Mean anomaly: 198.7802 deg

Mean motion: 14.14349352 rev/day

Mean motion (dot): 0.00005452 rev/day2

B* drag term: 0.002815874 1/REarth

Two-line elements (TLE)

Creation date: Oct. 19, 2025, 2:20 a.m.

Reference frame: TEME

Reference center: EARTH

Epoch: Oct. 18, 2025, 6:53 p.m. UTC

TLE line 0: 0 DMSP 5D-2 F13 DEB

TLE line 1: 1 40478U 95015BW 25291.78747707 .00005452 00000-0 28159-2 0 9992

TLE line 2: 2 40478 98.9796 236.5242 0064533 161.5729 198.7802 14.14349352542999

Live tracking on map

Real-time ground track for satellite DMSP 5D-2 F13 DEB.

In-orbit conjunctions

A list of the most updated potential collisions computed for object DMSP 5D-2 F13 DEB.

Target Orbit TCA Probability of collision Miss distance Type
OBJECT B LEO 2025-08-12 07:29:18 0.0001738926 668.0 (m) UNKNOWN
NOAA 7 SSO 2025-04-15 04:35:59 0.0004814101 283.0 (m) PAYLOAD
COSMOS 2219 LEO 2024-12-15 05:21:13 0.0002727817 364.0 (m) PAYLOAD

Associated space launch

Military meteorological satellite

DMSP 5D-2 F13 DEB was lifted into orbit during the mission ‘Atlas E | DMSP-5D2 F13’, on board a Atlas E space rocket.

The launch took place on March 24, 1995, 2:05 p.m. from Space Launch Complex 3W.

For more information about the launch, click the button.

Launch to space Atlas E | DMSP-5D2 F13
Atlas E | DMSP-5D2 F13

Agency: N/A

Status: Launch Successful

Launch date: March 24, 1995, 2:05 p.m. UTC

Rocket: Atlas E

Launch pad: Space Launch Complex 3W

Location: Vandenberg SFB, CA, USA

...

Latest news about this satellite

There are no fresh news available about this satellite. Check back as we update our databases every day.


Newsletter sign-up

Weekly statistics, charts and insights to help you stay on top of the space industry.